Time,TemperatureF,DewpointF,PressureIn,WindDirection,WindDirectionDegrees,WindSpeedMPH,WindSpeedGustMPH,Humidity,HourlyPrecipIn,Conditions,Clouds,dailyrainin,SolarRadiationWatts/m^2,SoftwareType,DateUTC
2013-12-29 00:02:00,18.0,13.0,-100.00,North,-999,0.0,3.0,81,0.00,,,0.00,0.000000,,2013-12-29 07:02:00,
2013-12-29 00:12:00,18.0,13.0,-100.00,North,-999,0.0,3.0,81,0.00,,,0.00,0.000000,,2013-12-29 07:12:00,
2013-12-29 00:52:00,20.0,16.0,-100.00,SE,140,1.0,3.0,84,0.00,,,0.00,0.000000,,2013-12-29 07:52:00,
2013-12-29 01:02:00,20.0,16.0,-100.00,SE,140,1.0,3.0,84,0.00,,,0.00,0.000000,,2013-12-29 08:02:00,
2013-12-29 01:11:00,20.0,16.0,-100.00,SE,140,1.0,3.0,84,0.00,,,0.00,0.000000,,2013-12-29 08:11:00,
2013-12-29 01:21:00,20.0,16.0,-100.00,SE,140,1.0,3.0,84,0.00,,,0.00,0.000000,,2013-12-29 08:21:00,
2013-12-29 01:52:00,18.0,13.0,-100.00,WSW,244,2.0,3.0,82,0.00,,,0.00,0.000000,,2013-12-29 08:52:00,
2013-12-29 02:02:00,18.0,13.0,-100.00,WSW,244,2.0,3.0,82,0.00,,,0.00,0.000000,,2013-12-29 09:02:00,
2013-12-29 02:12:00,18.0,13.0,-100.00,WSW,244,2.0,3.0,82,0.00,,,0.00,0.000000,,2013-12-29 09:12:00,
2013-12-29 02:21:00,18.0,13.0,-100.00,WSW,244,2.0,3.0,82,0.00,,,0.00,0.000000,,2013-12-29 09:21:00,
2013-12-29 02:22:00,16.0,12.0,-100.00,SSE,165,2.0,2.0,85,0.00,,,0.00,0.000000,,2013-12-29 09:22:00,
2013-12-29 02:53:00,16.0,12.0,-100.00,SSE,165,2.0,2.0,85,0.00,,,0.00,0.000000,,2013-12-29 09:53:00,
2013-12-29 03:03:00,16.0,12.0,-100.00,SSE,165,2.0,2.0,85,0.00,,,0.00,0.000000,,2013-12-29 10:03:00,
2013-12-29 03:13:00,16.0,12.0,-100.00,SSE,165,2.0,2.0,85,0.00,,,0.00,0.000000,,2013-12-29 10:13:00,
2013-12-29 03:22:00,17.0,13.0,-100.00,WSW,255,2.0,2.0,83,0.00,,,0.00,0.000000,,2013-12-29 10:22:00,
2013-12-29 03:53:00,17.0,13.0,-100.00,WSW,255,2.0,2.0,83,0.00,,,0.00,0.000000,,2013-12-29 10:53:00,
2013-12-29 04:02:00,17.0,13.0,-100.00,WSW,255,2.0,2.0,83,0.00,,,0.00,0.000000,,2013-12-29 11:02:00,
2013-12-29 04:12:00,17.0,13.0,-100.00,WSW,255,2.0,2.0,83,0.00,,,0.00,0.000000,,2013-12-29 11:12:00,
2013-12-29 04:22:00,16.0,12.0,-100.00,West,276,1.0,3.0,84,0.00,,,0.00,0.000000,,2013-12-29 11:22:00,
2013-12-29 04:53:00,16.0,12.0,-100.00,West,276,1.0,3.0,84,0.00,,,0.00,0.000000,,2013-12-29 11:53:00,
2013-12-29 05:02:00,16.0,12.0,-100.00,West,276,1.0,3.0,84,0.00,,,0.00,0.000000,,2013-12-29 12:02:00,
2013-12-29 05:11:00,16.0,12.0,-100.00,West,276,1.0,3.0,84,0.00,,,0.00,0.000000,,2013-12-29 12:11:00,
2013-12-29 05:22:00,15.0,12.0,-100.00,WSW,247,1.0,2.0,87,0.00,,,0.00,0.000000,,2013-12-29 12:22:00,
2013-12-29 05:52:00,15.0,12.0,-100.00,WSW,247,1.0,2.0,87,0.00,,,0.00,0.000000,,2013-12-29 12:52:00,
2013-12-29 06:02:00,15.0,12.0,-100.00,WSW,247,1.0,2.0,87,0.00,,,0.00,0.000000,,2013-12-29 13:02:00,
2013-12-29 06:11:00,15.0,12.0,-100.00,WSW,247,1.0,2.0,87,0.00,,,0.00,0.000000,,2013-12-29 13:11:00,
2013-12-29 06:22:00,16.0,12.0,-100.00,West,265,2.0,2.0,84,0.00,,,0.00,0.000000,,2013-12-29 13:22:00,
2013-12-29 06:53:00,16.0,12.0,-100.00,West,265,2.0,2.0,84,0.00,,,0.00,0.000000,,2013-12-29 13:53:00,
2013-12-29 07:01:00,16.0,12.0,-100.00,West,265,2.0,2.0,84,0.00,,,0.00,0.000000,,2013-12-29 14:01:00,
2013-12-29 07:11:00,16.0,12.0,-100.00,West,265,2.0,2.0,84,0.00,,,0.00,0.000000,,2013-12-29 14:11:00,
2013-12-29 07:52:00,15.0,12.0,-100.00,SE,142,1.0,2.0,88,0.00,,,0.00,0.000000,,2013-12-29 14:52:00,
2013-12-29 08:02:00,15.0,12.0,-100.00,SE,142,1.0,2.0,88,0.00,,,0.00,0.000000,,2013-12-29 15:02:00,
2013-12-29 08:11:00,15.0,12.0,-100.00,SE,142,1.0,2.0,88,0.00,,,0.00,0.000000,,2013-12-29 15:11:00,
2013-12-29 08:21:00,15.0,12.0,-100.00,SE,142,1.0,2.0,88,0.00,,,0.00,0.000000,,2013-12-29 15:21:00,
2013-12-29 08:22:00,16.0,13.0,-100.00,North,-999,0.0,2.0,88,0.00,,,0.00,22.000000,,2013-12-29 15:22:00,
2013-12-29 08:53:00,16.0,13.0,-100.00,North,-999,0.0,2.0,88,0.00,,,0.00,22.000000,,2013-12-29 15:53:00,
2013-12-29 09:03:00,16.0,13.0,-100.00,North,-999,0.0,2.0,88,0.00,,,0.00,22.000000,,2013-12-29 16:03:00,
2013-12-29 09:13:00,16.0,13.0,-100.00,North,-999,0.0,2.0,88,0.00,,,0.00,22.000000,,2013-12-29 16:13:00,
2013-12-29 09:22:00,20.0,13.0,-100.00,NNE,13,1.0,2.0,75,0.00,,,0.00,106.000000,,2013-12-29 16:22:00,
2013-12-29 11:12:00,23.0,14.0,-100.00,WSW,250,2.0,2.0,68,0.00,,,0.00,211.000000,,2013-12-29 18:12:00,
2013-12-29 11:21:00,23.0,14.0,-100.00,WSW,250,2.0,2.0,68,0.00,,,0.00,211.000000,,2013-12-29 18:21:00,
2013-12-29 11:53:00,24.0,13.0,-100.00,WNW,285,3.0,4.0,63,0.00,,,0.00,434.000000,,2013-12-29 18:53:00,
2013-12-29 12:01:00,24.0,13.0,-100.00,WNW,285,3.0,4.0,63,0.00,,,0.00,434.000000,,2013-12-29 19:01:00,
2013-12-29 12:11:00,24.0,13.0,-100.00,WNW,285,3.0,4.0,63,0.00,,,0.00,434.000000,,2013-12-29 19:11:00,
2013-12-29 12:21:00,24.0,13.0,-100.00,WNW,285,3.0,4.0,63,0.00,,,0.00,434.000000,,2013-12-29 19:21:00,
2013-12-29 12:22:00,29.0,15.0,-100.00,WNW,292,2.0,4.0,55,0.00,,,0.00,614.000000,,2013-12-29 19:22:00,
2013-12-29 13:22:00,28.0,15.0,-100.00,WNW,303,3.0,5.0,58,0.00,,,0.00,602.000000,,2013-12-29 20:22:00,
2013-12-29 13:53:00,28.0,15.0,-100.00,WNW,303,3.0,5.0,58,0.00,,,0.00,602.000000,,2013-12-29 20:53:00,
2013-12-29 14:02:00,28.0,15.0,-100.00,WNW,303,3.0,5.0,58,0.00,,,0.00,602.000000,,2013-12-29 21:02:00,
2013-12-29 14:12:00,28.0,15.0,-100.00,WNW,303,3.0,5.0,58,0.00,,,0.00,602.000000,,2013-12-29 21:12:00,
2013-12-29 14:22:00,28.0,15.0,-100.00,WNW,297,3.0,5.0,57,0.00,,,0.00,522.000000,,2013-12-29 21:22:00,
2013-12-29 14:53:00,28.0,15.0,-100.00,WNW,297,3.0,5.0,57,0.00,,,0.00,522.000000,,2013-12-29 21:53:00,
2013-12-29 15:03:00,28.0,15.0,-100.00,WNW,297,3.0,5.0,57,0.00,,,0.00,522.000000,,2013-12-29 22:03:00,
2013-12-29 15:12:00,28.0,15.0,-100.00,WNW,297,3.0,5.0,57,0.00,,,0.00,522.000000,,2013-12-29 22:12:00,
2013-12-29 15:22:00,29.0,15.0,-100.00,North,3,2.0,4.0,55,0.00,,,0.00,383.000000,,2013-12-29 22:22:00,
2013-12-29 15:52:00,29.0,15.0,-100.00,North,3,2.0,4.0,55,0.00,,,0.00,383.000000,,2013-12-29 22:52:00,
2013-12-29 16:02:00,29.0,15.0,-100.00,North,3,2.0,4.0,55,0.00,,,0.00,383.000000,,2013-12-29 23:02:00,
2013-12-29 16:12:00,29.0,15.0,-100.00,North,3,2.0,4.0,55,0.00,,,0.00,383.000000,,2013-12-29 23:12:00,
2013-12-29 16:22:00,25.0,13.0,-100.00,West,267,2.0,3.0,60,0.00,,,0.00,198.000000,,2013-12-29 23:22:00,
2013-12-29 16:53:00,25.0,13.0,-100.00,West,267,2.0,3.0,60,0.00,,,0.00,198.000000,,2013-12-29 23:53:00,
2013-12-29 17:02:00,25.0,13.0,-100.00,West,267,2.0,3.0,60,0.00,,,0.00,198.000000,,2013-12-30 00:02:00,
2013-12-29 17:12:00,25.0,13.0,-100.00,West,267,2.0,3.0,60,0.00,,,0.00,198.000000,,2013-12-30 00:12:00,
2013-12-29 17:22:00,16.0,13.0,-100.00,WSW,255,2.0,2.0,88,0.00,,,0.00,9.000000,,2013-12-30 00:22:00,
2013-12-29 17:53:00,16.0,13.0,-100.00,WSW,255,2.0,2.0,88,0.00,,,0.00,9.000000,,2013-12-30 00:53:00,
2013-12-29 18:02:00,16.0,13.0,-100.00,WSW,255,2.0,2.0,88,0.00,,,0.00,9.000000,,2013-12-30 01:02:00,
2013-12-29 18:11:00,16.0,13.0,-100.00,WSW,255,2.0,2.0,88,0.00,,,0.00,9.000000,,2013-12-30 01:11:00,
2013-12-29 18:52:00,14.0,12.0,-100.00,West,266,2.0,3.0,92,0.00,,,0.00,0.000000,,2013-12-30 01:52:00,
2013-12-29 19:02:00,14.0,12.0,-100.00,West,266,2.0,3.0,92,0.00,,,0.00,0.000000,,2013-12-30 02:02:00,
2013-12-29 19:11:00,14.0,12.0,-100.00,West,266,2.0,3.0,92,0.00,,,0.00,0.000000,,2013-12-30 02:11:00,
2013-12-29 19:52:00,14.0,12.0,-100.00,NNW,340,1.0,2.0,90,0.00,,,0.00,0.000000,,2013-12-30 02:52:00,
2013-12-29 20:02:00,14.0,12.0,-100.00,NNW,340,1.0,2.0,90,0.00,,,0.00,0.000000,,2013-12-30 03:02:00,
2013-12-29 20:12:00,14.0,12.0,-100.00,NNW,340,1.0,2.0,90,0.00,,,0.00,0.000000,,2013-12-30 03:12:00,
2013-12-29 20:54:00,12.0,10.0,-100.00,North,-999,0.0,3.0,91,0.00,,,0.00,0.000000,,2013-12-30 03:54:00,
2013-12-29 21:03:00,12.0,10.0,-100.00,North,-999,0.0,3.0,91,0.00,,,0.00,0.000000,,2013-12-30 04:03:00,
2013-12-29 21:13:00,12.0,10.0,-100.00,North,-999,0.0,3.0,91,0.00,,,0.00,0.000000,,2013-12-30 04:13:00,
2013-12-29 21:53:00,12.0,9.0,-100.00,SE,129,2.0,2.0,88,0.00,,,0.00,0.000000,,2013-12-30 04:53:00,
2013-12-29 22:02:00,12.0,9.0,-100.00,SE,129,2.0,2.0,88,0.00,,,0.00,0.000000,,2013-12-30 05:02:00,
2013-12-29 22:12:00,12.0,9.0,-100.00,SE,129,2.0,2.0,88,0.00,,,0.00,0.000000,,2013-12-30 05:12:00,